Temperature
9 8 7 8 8 9 9 9 9 9 9 8 7 8 8 8 8 7 7 6 5 5 4 4 4 4 4 4 4 5 5 5 5 5 5 5 5 6 6 6 6 6 6 6
8 7 7 8 8 8 8 8 9 8 8 8 7 7 8 7 7 7 6 5 5 4 4 3 3 3 4 4 4 4 4 4 4 5 5 5 5 5 5 5 5 6 6 6
7 7 7 8 8 8 8 7 7 7 6 7 6 6 7 7 7 6 6 5 4 3 3 3 2 3 3 3 3 3 3 3 3 4 4 4 4 4 4 5 5 5 5 5
7 6 7 7 7 6 6 7 7 6 5 5 6 4 6 6 6 5 5 5 4 3 2 2 2 2 2 2 2 3 3 3 3 3 3 3 3 3 3 4 4 4 4 5
6 5 5 6 6 6 5 6 6 5 5 4 5 4 5 6 5 4 4 4 3 3 2 1 1 1 1 2 2 2 2 2 2 2 2 3 3 3 3 3 3 4 4 4
4 4 4 4 5 5 5 5 4 4 4 3 5 4 5 5 4 4 4 3 3 2 2 1 1 1 1 1 1 1 1 2 2 2 2 2 2 2 2 2 2 3 3 3
4 4 4 4 4 4 4 3 3 3 3 4 5 5 4 4 4 3 3 3 2 2 1 1 0 0 -0 0 0 1 1 1 1 1 1 1 1 1 2 2 2 2 2 3
4 4 3 3 3 3 3 4 3 4 4 4 4 4 3 3 2 3 2 2 2 1 1 0 -0 -0 -0 -0 -0 -0 0 0 0 1 1 1 1 1 1 1 1 1 2 2
4 3 2 2 3 3 3 3 3 3 3 2 3 3 3 2 2 1 1 1 1 0 0 -0 -0 -1 -1 -1 -1 -1 -1 -0 0 0 0 0 0 0 1 1 1 1 1 1
3 2 2 2 2 2 2 2 2 2 2 3 4 4 3 1 1 0 0 0 -0 -0 -1 -1 -1 -1 -1 -1 -1 -1 -1 -1 -1 -0 -0 -0 -0 -0 0 0 1 1 1 1
2 1 1 1 0 1 1 1 1 2 2 2 2 3 2 1 1 -0 -0 -0 -1 -1 -1 -2 -2 -2 -2 -2 -2 -2 -2 -1 -1 -1 -1 -1 -0 -0 -0 -0 -0 0 0 0
1 1 1 1 0 0 0 1 1 1 1 1 1 1 1 0 0 -0 -1 -1 -1 -2 -2 -2 -2 -2 -2 -2 -2 -2 -2 -2 -2 -2 -1 -1 -1 -1 -1 -1 -1 -0 -0 -0
1 1 0 1 -0 -1 -1 -1 -0 -0 -0 0 1 1 -0 -0 -0 -1 -1 -1 -2 -2 -2 -2 -2 -3 -3 -3 -3 -3 -3 -2 -2 -2 -2 -2 -2 -1 -1 -1 -1 -1 -1 -1
1 -0 0 1 1 -1 -1 -1 -1 -1 -1 -1 0 0 -0 -1 -1 -2 -2 -2 -2 -3 -3 -3 -3 -3 -3 -3 -4 -3 -3 -3 -3 -3 -2 -2 -2 -2 -2 -2 -1 -1 -1 -1
-1 -1 -0 -0 0 0 -0 -1 -2 -2 -1 -1 -0 -0 -1 -1 -2 -2 -2 -3 -3 -3 -3 -4 -4 -4 -4 -4 -4 -4 -4 -3 -3 -3 -3 -2 -2 -2 -2 -2 -2 -2 -2 -2
-2 -1 -1 -1 -0 -1 -1 -1 -2 -2 -2 -2 -1 -1 -1 -1 -2 -2 -3 -3 -4 -4 -4 -4 -4 -4 -4 -4 -4 -4 -4 -4 -4 -3 -3 -3 -3 -3 -3 -3 -2 -2 -2 -2
-2 -2 -2 -1 -1 -1 -2 -2 -2 -2 -2 -2 -2 -2 -2 -3 -3 -3 -3 -4 -4 -4 -4 -5 -5 -5 -5 -5 -5 -5 -5 -5 -4 -4 -4 -3 -3 -3 -3 -3 -3 -3 -3 -3
-3 -3 -2 -2 -2 -2 -1 -2 -2 -3 -3 -3 -3 -3 -3 -3 -3 -3 -3 -4 -5 -5 -5 -5 -5 -5 -5 -5 -5 -5 -5 -5 -4 -4 -4 -4 -4 -4 -4 -4 -3 -3 -3 -3
-3 -3 -2 -2 -2 -1 -1 -3 -3 -3 -4 -4 -4 -4 -4 -4 -4 -4 -4 -4 -5 -5 -5 -6 -6 -6 -6 -6 -6 -6 -5 -5 -5 -5 -4 -4 -4 -4 -4 -4 -4 -4 -4 -3
-4 -4 -3 -2 -2 -2 -2 -3 -3 -4 -4 -4 -4 -4 -4 -5 -5 -5 -4 -5 -5 -6 -6 -6 -6 -6 -6 -6 -6 -6 -6 -6 -5 -5 -5 -5 -5 -5 -5 -5 -4 -4 -4 -4
-5 -4 -4 -3 -3 -3 -4 -4 -3 -3 -3 -3 -4 -4 -5 -5 -6 -5 -6 -6 -6 -6 -6 -6 -7 -6 -6 -6 -6 -6 -6 -6 -6 -5 -5 -5 -5 -5 -5 -5 -5 -5 -5 -5
-5 -5 -4 -4 -3 -3 -5 -5 -5 -4 -4 -4 -4 -5 -5 -5 -6 -6 -6 -6 -7 -7 -7 -7 -7 -7 -7 -7 -7 -7 -6 -6 -6 -6 -5 -5 -5 -5 -5 -5 -5 -5 -5 -5
-5 -5 -5 -4 -4 -4 -5 -5 -4 -4 -5 -5 -5 -5 -6 -6 -6 -7 -7 -7 -7 -7 -7 -8 -8 -8 -7 -7 -7 -7 -7 -6 -6 -6 -6 -6 -5 -5 -6 -6 -6 -6 -6 -6
-6 -6 -5 -5 -5 -5 -5 -5 -5 -5 -5 -5 -6 -6 -6 -7 -7 -7 -7 -8 -8 -8 -8 -8 -8 -8 -8 -8 -8 -7 -7 -7 -7 -6 -6 -6 -6 -6 -6 -6 -6 -6 -6 -6
-6 -7 -7 -6 -7 -6 -5 -5 -5 -6 -6 -6 -6 -7 -7 -7 -7 -8 -8 -8 -8 -8 -8 -8 -8 -8 -9 -8 -8 -8 -8 -7 -7 -7 -7 -7 -7 -7 -6 -6 -6 -7 -6 -7
-8 -8 -7 -6 -6 -7 -6 -6 -6 -6 -6 -7 -7 -7 -7 -8 -8 -8 -8 -8 -9 -9 -9 -9 -9 -9 -9 -9 -9 -9 -8 -8 -8 -8 -8 -8 -7 -7 -7 -7 -7 -7 -7 -7
Wind_Speed
2 3 3 3 5 4 4 5 6 3 1 3 8 9 7 5 4 4 4 3 3 2 1 2 3 3 3 2 2 2 2 2 2 1 1 1 1 1 1 2 3 3 3 3
2 4 2 2 3 4 6 7 6 2 0 3 7 10 8 6 7 4 4 3 3 2 1 2 2 2 2 1 1 1 1 1 1 1 1 1 1 1 0 2 3 3 3 3
3 0 1 3 3 4 6 5 5 3 4 5 6 7 6 4 5 4 3 3 3 3 2 1 1 1 1 1 0 1 1 1 2 2 1 2 1 1 1 0 1 2 3 3
3 1 2 3 4 3 4 2 3 2 3 4 3 5 5 5 5 5 3 3 3 2 2 1 1 0 0 0 0 0 1 1 1 2 1 1 1 2 2 1 1 2 2 3
1 1 1 3 2 2 1 3 3 4 5 5 5 5 6 5 5 5 4 3 2 2 2 1 1 0 0 0 0 0 1 1 1 1 2 2 2 2 2 1 2 2 2 2
0 2 2 1 1 2 1 2 3 3 2 6 8 7 5 3 5 4 3 3 2 1 1 1 1 0 0 0 0 1 1 1 2 2 2 2 3 3 2 2 2 2 2 2
3 2 1 1 1 1 1 0 1 1 4 6 3 5 4 2 3 3 2 2 2 1 1 1 1 1 0 0 1 1 1 2 2 2 3 3 3 4 4 3 3 3 2 2
3 3 3 1 0 2 3 3 3 4 4 3 2 5 3 2 4 4 3 2 1 1 0 0 0 1 1 1 1 2 2 3 3 3 4 4 3 3 4 4 3 3 3 3
2 1 1 1 2 1 2 3 1 1 3 4 5 3 2 2 3 3 3 2 1 1 2 1 1 0 1 1 2 2 3 3 3 4 4 4 4 4 4 4 3 3 3 4
2 2 1 2 1 2 2 0 2 3 3 5 6 4 3 3 1 1 1 1 2 2 3 3 3 2 2 2 2 2 3 4 4 4 4 5 4 4 4 4 4 4 4 4
2 1 1 2 5 5 3 2 3 3 3 3 4 3 1 3 2 1 0 1 1 2 2 3 3 2 2 2 2 2 3 3 4 4 5 5 4 4 4 4 5 4 4 4
1 1 3 3 0 2 1 2 4 4 5 4 3 4 2 1 2 2 1 1 2 2 2 3 3 3 3 3 3 3 3 4 4 5 5 5 5 4 5 5 5 5 5 5
2 2 1 2 1 1 2 3 3 2 1 4 4 5 0 2 2 1 1 2 2 3 3 3 3 3 3 3 3 4 4 4 5 5 5 5 5 5 5 5 5 5 5 5
0 3 5 6 3 2 4 5 4 4 4 5 8 8 6 3 3 3 2 3 3 3 4 4 4 4 4 4 4 4 4 4 5 4 5 5 5 5 5 5 5 5 5 6
1 3 4 6 6 4 5 6 7 9 9 8 7 7 7 4 3 3 3 3 3 4 5 5 5 5 5 5 5 5 5 5 5 5 5 5 4 4 4 5 5 5 6 6
1 3 2 5 5 5 6 8 9 9 8 9 9 9 4 3 2 3 3 4 5 5 5 6 7 6 6 5 6 5 5 5 5 5 5 5 4 4 4 5 5 5 5 5
3 2 2 4 2 4 6 8 8 5 6 6 9 6 2 3 4 4 5 4 5 6 6 7 7 7 6 6 6 6 6 5 5 5 5 4 4 4 4 5 5 5 5 5
4 3 2 2 1 6 5 1 3 4 5 5 4 3 2 3 5 5 3 3 5 6 6 7 7 7 6 6 6 6 6 6 5 5 5 4 4 4 5 5 5 5 5 5
2 3 3 2 4 6 2 0 1 3 5 3 4 4 4 4 4 3 2 2 4 5 6 6 6 6 6 7 6 6 6 5 5 5 5 5 4 5 5 6 6 5 5 6
0 1 3 3 4 4 2 1 1 1 3 2 1 2 2 3 3 4 5 5 6 6 5 5 6 6 6 7 6 6 6 5 5 5 5 5 5 5 6 6 6 5 5 6
2 2 5 5 5 4 1 1 1 1 4 2 0 1 1 2 4 5 6 6 6 6 6 6 6 6 6 7 6 6 6 6 6 5 5 5 5 5 6 6 5 5 6 6
4 4 4 3 4 5 1 2 1 3 2 2 1 2 3 4 5 5 6 6 6 6 7 7 7 7 7 7 6 7 7 7 6 5 5 5 5 5 5 5 5 5 5 6
4 4 3 4 4 1 1 1 1 1 1 2 2 2 3 4 5 6 6 6 6 6 6 6 7 8 7 7 6 7 8 7 6 5 5 5 5 5 4 4 4 5 4 4
2 1 2 3 4 3 2 2 2 1 1 2 2 2 2 4 5 6 6 6 6 6 6 6 7 7 8 8 7 7 8 7 6 6 6 5 5 5 4 4 4 4 4 4
2 2 2 4 4 3 2 2 3 3 2 3 3 3 3 3 5 5 5 6 6 6 6 6 6 7 8 8 8 8 8 7 7 6 6 5 4 4 4 4 4 4 4 5
1 2 2 4 2 2 4 3 3 3 3 3 3 4 3 3 4 5 5 5 5 6 6 6 6 7 8 8 8 8 8 7 7 6 6 5 4 4 4 4 5 6 7 9
Wind_Direction
193 221 211 209 223 267 285 269 268 274 211 244 250 260 251 233 229 217 197 189 188 183 160 108 94 94 92 80 77 56 22 1 11 356 318 301 283 270 305 16 20 15 5 354
210 229 246 282 253 261 267 274 273 301 348 287 272 270 259 218 211 193 179 174 171 161 138 106 83 81 81 71 53 46 20 3 354 335 306 266 280 260 257 15 12 2 351 347
218 214 253 250 262 261 263 257 277 291 315 269 278 279 219 198 182 173 166 164 165 172 178 157 104 85 69 42 18 326 343 333 328 331 341 338 327 304 280 304 289 327 330 331
238 245 268 252 253 253 260 315 302 309 297 267 219 277 240 185 175 175 166 161 160 148 138 144 129 85 71 285 325 322 305 322 327 335 334 305 272 276 273 252 254 299 327 328
247 27 270 251 284 291 283 332 292 265 260 280 234 239 258 174 191 193 171 155 141 129 141 165 175 200 315 0 352 317 299 294 308 311 289 280 272 268 267 270 268 267 294 311
212 25 3 357 347 304 330 315 288 256 244 258 221 211 256 202 186 169 161 143 130 116 124 120 106 128 103 26 340 315 299 286 282 279 283 268 274 268 256 260 262 260 257 284
207 166 129 294 217 180 253 85 337 263 227 245 197 212 241 152 122 129 145 159 149 155 158 165 168 164 181 314 314 303 283 284 277 272 272 265 271 261 240 239 240 254 260 275
236 225 169 208 276 207 217 214 200 236 256 291 281 233 219 122 92 80 81 81 104 83 50 323 200 177 206 258 280 283 279 278 276 270 269 266 262 263 245 238 237 238 244 250
273 241 100 3 335 316 203 221 310 290 284 271 242 224 216 133 85 76 73 73 42 12 359 339 335 271 248 251 261 262 266 274 276 274 271 267 263 266 257 244 243 240 244 258
321 282 201 155 218 278 306 298 161 200 243 262 262 229 219 194 211 81 56 33 0 357 346 337 327 302 270 257 263 262 261 269 273 273 267 273 263 261 262 246 242 244 246 256
310 217 204 190 209 212 200 214 215 230 243 238 270 262 317 187 163 157 272 356 345 334 324 323 314 312 298 294 285 278 270 276 276 273 265 267 261 257 263 252 242 247 248 249
240 227 244 233 358 347 238 215 183 198 243 234 260 267 277 64 98 107 54 343 336 329 323 313 309 315 314 305 297 287 279 273 273 272 266 263 260 253 256 256 247 250 250 252
179 185 253 267 281 307 261 244 223 214 255 237 236 253 268 24 29 34 8 342 334 330 324 314 309 306 306 306 299 293 287 279 273 267 263 259 252 251 251 256 252 249 248 252
313 220 221 246 274 206 229 225 212 198 219 242 237 254 281 303 322 332 327 324 322 316 310 311 313 312 310 306 304 298 293 286 282 274 265 259 251 249 254 256 255 251 249 248
171 238 249 270 286 271 249 233 211 216 226 235 255 261 272 283 304 308 313 315 310 311 315 315 312 310 312 312 309 305 299 291 285 277 268 260 255 251 255 257 252 254 253 254
220 248 277 273 265 263 269 253 230 231 241 250 269 277 279 307 325 320 313 307 304 307 310 313 313 310 309 306 302 301 297 295 288 276 270 266 253 249 252 257 256 253 255 256
200 209 245 263 290 302 262 235 214 220 225 219 242 258 332 328 308 297 294 295 301 305 308 308 306 304 306 304 301 294 290 288 285 282 279 271 258 255 259 263 265 261 258 257
180 185 220 259 296 244 242 62 177 211 249 233 246 277 310 305 300 291 286 298 306 308 308 307 306 307 307 306 304 298 292 285 282 282 277 281 275 264 266 264 263 262 264 261
190 184 218 227 248 264 259 216 156 206 272 244 238 277 312 337 330 300 324 336 308 304 301 301 304 309 312 311 309 305 297 288 284 281 278 276 276 273 268 266 265 264 267 268
223 200 217 231 248 249 267 0 6 95 278 292 208 263 310 359 320 301 345 339 326 321 319 318 316 315 315 315 314 306 300 291 287 286 283 280 274 271 266 263 265 264 264 267
174 219 224 237 247 264 309 325 75 178 266 326 281 255 280 275 263 294 321 326 325 326 327 326 320 316 314 317 319 313 313 303 297 297 291 284 275 269 267 265 265 264 264 262
181 187 204 213 227 254 45 83 175 242 320 349 346 320 304 296 302 309 315 322 327 329 330 329 326 320 320 322 320 316 313 312 311 305 299 293 287 281 277 269 269 265 259 257
195 195 204 208 220 265 169 219 263 352 327 324 321 314 306 302 302 310 315 318 319 322 323 326 323 320 324 326 325 316 315 318 318 313 306 303 299 293 288 278 273 271 265 260
229 267 240 260 266 270 252 298 341 347 301 310 311 307 303 295 302 308 311 314 317 318 319 324 324 323 324 328 329 324 322 324 322 318 314 306 304 301 296 285 275 269 269 268
236 184 233 254 286 315 294 298 308 315 321 320 322 316 302 300 300 299 304 308 312 315 318 320 320 318 321 327 329 329 330 331 326 322 320 319 314 307 304 302 294 289 277 271
233 203 212 250 271 255 282 305 319 313 312 313 319 321 316 295 294 303 303 305 309 313 316 320 320 319 320 325 326 329 334 336 331 327 326 326 324 319 313 309 309 304 295 298
Height
1492 1495 1495 1495 1495 1494 1493 1493 1493 1492 1493 1495 1495 1492 1491 1491 1493 1494 1495 1496 1498 1500 1502 1502 1502 1503 1503 1504 1504 1505 1506 1506 1507 1507 1508 1508 1509 1510 1510 1511 1511 1512 1513 1513
1493 1495 1494 1493 1493 1493 1493 1494 1493 1493 1492 1494 1493 1490 1487 1487 1488 1490 1492 1494 1496 1498 1499 1500 1500 1500 1501 1502 1502 1502 1503 1504 1504 1505 1505 1506 1506 1507 1508 1508 1509 1509 1510 1510
1492 1495 1493 1493 1493 1494 1493 1495 1494 1496 1496 1494 1495 1491 1484 1484 1485 1488 1490 1492 1494 1495 1496 1497 1498 1498 1499 1499 1500 1500 1500 1501 1501 1502 1502 1503 1503 1504 1504 1505 1505 1506 1506 1507
1492 1493 1493 1493 1494 1494 1496 1494 1495 1497 1502 1500 1496 1500 1483 1482 1485 1487 1489 1490 1492 1493 1494 1495 1495 1496 1496 1497 1497 1498 1498 1498 1499 1499 1499 1499 1500 1499 1500 1501 1501 1502 1503 1504
1493 1494 1494 1495 1496 1495 1497 1496 1496 1498 1499 1501 1495 1500 1486 1480 1484 1485 1487 1488 1490 1491 1492 1493 1493 1493 1494 1494 1494 1495 1495 1495 1496 1496 1496 1496 1497 1497 1497 1498 1498 1499 1500 1500
1495 1496 1496 1496 1497 1497 1497 1498 1498 1498 1500 1505 1491 1494 1484 1482 1481 1482 1484 1486 1488 1490 1491 1491 1491 1491 1491 1491 1492 1492 1492 1492 1493 1493 1493 1493 1494 1494 1494 1494 1495 1495 1496 1496
1495 1496 1497 1497 1498 1499 1499 1503 1505 1504 1504 1494 1482 1485 1484 1479 1478 1480 1482 1484 1486 1488 1488 1488 1488 1488 1488 1488 1488 1488 1489 1489 1489 1489 1490 1490 1490 1490 1490 1491 1491 1491 1492 1492
1493 1496 1497 1498 1498 1499 1499 1500 1504 1504 1496 1488 1488 1486 1483 1479 1479 1480 1482 1483 1485 1486 1486 1486 1486 1485 1485 1485 1485 1485 1485 1485 1486 1486 1486 1486 1487 1487 1487 1487 1487 1488 1488 1489
1493 1495 1498 1498 1498 1498 1498 1499 1499 1503 1499 1501 1488 1483 1482 1479 1480 1481 1482 1482 1483 1484 1484 1483 1483 1483 1482 1482 1482 1482 1482 1482 1482 1482 1482 1482 1482 1482 1482 1483 1483 1484 1485 1485
1495 1500 1498 1499 1499 1499 1499 1498 1503 1503 1502 1495 1480 1478 1480 1481 1481 1481 1482 1482 1482 1482 1482 1481 1481 1480 1480 1479 1479 1479 1478 1478 1478 1478 1477 1477 1477 1478 1478 1478 1479 1479 1480 1481
1496 1501 1501 1500 1501 1499 1501 1501 1499 1499 1497 1497 1491 1485 1478 1478 1478 1480 1481 1481 1481 1481 1480 1479 1479 1478 1477 1477 1476 1475 1475 1474 1474 1473 1473 1473 1472 1473 1473 1473 1473 1474 1475 1476
1495 1497 1499 1498 1497 1497 1497 1496 1499 1503 1499 1495 1494 1490 1478 1477 1477 1478 1479 1480 1479 1479 1479 1478 1477 1476 1475 1473 1472 1471 1470 1470 1469 1468 1468 1467 1467 1467 1468 1468 1468 1469 1470 1471
1495 1498 1500 1496 1501 1501 1500 1497 1497 1499 1499 1496 1494 1487 1478 1477 1477 1478 1478 1478 1477 1477 1476 1475 1474 1473 1472 1470 1469 1467 1466 1465 1464 1464 1463 1463 1462 1462 1463 1463 1463 1464 1464 1465
1493 1495 1496 1491 1487 1494 1496 1496 1496 1499 1500 1494 1487 1481 1479 1478 1477 1477 1477 1477 1476 1475 1474 1473 1471 1470 1469 1467 1465 1463 1462 1461 1460 1459 1458 1457 1457 1457 1457 1457 1458 1458 1459 1459
1494 1495 1492 1490 1487 1488 1488 1490 1492 1494 1491 1490 1482 1480 1477 1476 1477 1476 1476 1475 1474 1473 1471 1470 1469 1467 1465 1463 1461 1459 1457 1456 1455 1454 1453 1452 1452 1452 1452 1452 1453 1453 1453 1454
1494 1495 1492 1491 1487 1487 1487 1485 1486 1487 1487 1485 1481 1479 1475 1475 1475 1475 1474 1473 1472 1471 1469 1467 1466 1463 1461 1459 1457 1455 1453 1451 1450 1449 1448 1448 1447 1447 1447 1447 1447 1447 1448 1448
1493 1495 1494 1488 1488 1487 1485 1479 1480 1481 1479 1480 1480 1477 1474 1474 1474 1473 1472 1471 1470 1468 1467 1464 1462 1460 1457 1455 1453 1450 1448 1447 1445 1444 1443 1443 1443 1442 1443 1443 1442 1442 1442 1442
1491 1493 1492 1489 1491 1489 1476 1473 1473 1476 1476 1475 1474 1474 1473 1473 1472 1471 1470 1469 1467 1466 1463 1461 1459 1456 1454 1451 1449 1447 1444 1442 1441 1439 1439 1438 1438 1437 1437 1437 1437 1437 1437 1437
1488 1490 1490 1489 1486 1479 1474 1474 1474 1476 1475 1472 1472 1472 1472 1471 1470 1468 1467 1466 1465 1463 1461 1458 1456 1453 1450 1447 1445 1442 1440 1438 1436 1435 1434 1434 1433 1432 1432 1432 1432 1432 1432 1432
1489 1490 1491 1487 1484 1480 1474 1474 1472 1475 1476 1470 1470 1470 1470 1470 1471 1467 1465 1463 1462 1460 1457 1455 1452 1449 1446 1444 1441 1438 1435 1433 1432 1431 1430 1430 1429 1428 1428 1427 1427 1427 1427 1427
1491 1491 1490 1486 1483 1478 1476 1473 1473 1479 1474 1469 1468 1469 1469 1469 1469 1466 1463 1461 1459 1457 1455 1452 1449 1446 1443 1441 1438 1435 1432 1430 1428 1427 1426 1425 1424 1424 1423 1423 1422 1422 1422 1422
1486 1487 1487 1484 1483 1480 1475 1474 1476 1474 1470 1469 1468 1468 1468 1466 1465 1463 1461 1459 1457 1454 1452 1449 1446 1443 1441 1438 1435 1432 1429 1427 1425 1424 1422 1421 1420 1420 1419 1418 1418 1418 1418 1417
1480 1481 1480 1479 1478 1474 1472 1471 1471 1470 1469 1468 1467 1467 1466 1464 1462 1460 1458 1456 1454 1452 1449 1447 1444 1441 1438 1436 1433 1430 1427 1425 1422 1420 1419 1418 1416 1415 1415 1414 1413 1413 1412 1411
1478 1477 1477 1476 1473 1471 1471 1470 1470 1469 1468 1467 1466 1465 1463 1461 1460 1458 1456 1454 1452 1450 1447 1445 1442 1439 1436 1433 1430 1428 1425 1422 1420 1418 1416 1414 1413 1412 1411 1411 1410 1408 1407 1407
1475 1476 1476 1475 1472 1470 1469 1468 1468 1467 1466 1465 1464 1463 1461 1459 1457 1455 1453 1451 1450 1447 1445 1443 1440 1437 1434 1431 1428 1426 1423 1420 1418 1415 1413 1411 1410 1409 1407 1406 1405 1404 1403 1403
1475 1476 1476 1473 1470 1470 1468 1467 1466 1465 1464 1463 1461 1460 1458 1457 1455 1453 1451 1449 1447 1445 1443 1441 1438 1435 1432 1429 1426 1423 1421 1418 1415 1412 1410 1408 1406 1405 1403 1402 1401 1400 1400 1399